FW0647 Weather Reports


time (UTC)temp
F
wind
direction
speed
knots
gust
knots
rain 1hr
in
rain 24hr
in
rain mn
in
humidity
%
barometer
mb
20260506180007 56 360 0.0 6.1 0.00 0.01 0.01 79 1018.6
20260506174506 55 360 0.0 6.1 0.00 0.01 0.01 80 1019.1
20260506173005 54 360 0.9 4.3 0.00 0.01 0.01 81 1019.5
20260506171504 54 360 0.9 7.0 0.00 0.01 0.01 81 1019.3
20260506170008 54 360 0.9 5.2 0.00 0.01 0.01 82 1019.3
20260506164504 54 360 0.0 6.1 0.00 0.01 0.01 83 1019.4
20260506163005 54 118 0.0 5.2 0.00 0.01 0.01 83 1019.6
20260506161502 54 108 0.0 4.3 0.00 0.01 0.01 84 1019.6
20260506160001 54 360 0.0 3.5 0.00 0.01 0.01 85 1019.2
20260506154501 53 360 0.0 5.2 0.01 0.01 0.01 86 1018.5
20260506153059 53 360 0.0 7.8 0.01 0.01 0.01 86 1018.7
20260506151555 52 360 0.0 3.5 0.01 0.01 0.01 85 1019.5
20260506150100 53 360 0.0 5.2 0.01 0.01 0.01 83 1019.8
20260506144603 53 360 0.0 1.7 0.00 0.00 0.00 81 1021.0
20260506143054 53 360 0.0 7.8 0.00 0.00 0.00 81 1020.9
20260506141550 53 360 0.9 5.2 0.00 0.00 0.00 81 1018.7
20260506140104 53 360 0.0 4.3 0.00 0.00 0.00 81 1019.7
20260506134545 53 360 0.0 3.5 0.00 0.00 0.00 80 1019.3
20260506133047 53 360 0.9 10.4 0.00 0.00 0.00 80 1018.7
20260506131544 53 360 0.0 13.9 0.00 0.00 0.00 80 1018.5
20260506130050 53 360 0.9 7.0 0.00 0.00 0.00 79 1018.3
20260506124535 54 360 0.9 7.0 0.00 0.00 0.00 78 1017.9
20260506123038 54 360 0.0 4.3 0.00 0.00 0.00 76 1017.8
20260506121528 54 360 0.9 8.7 0.00 0.00 0.00 75 1017.7
20260506120032 55 360 0.9 4.3 0.00 0.00 0.00 74 1017.6
20260506114522 55 360 0.0 4.3 0.00 0.00 0.00 74 1017.5
20260506113019 56 360 0.0 6.1 0.00 0.00 0.00 74 1017.1
20260506111516 56 360 0.0 4.3 0.00 0.00 0.00 74 1016.9
20260506110015 56 360 0.0 6.1 0.00 0.00 0.00 74 1016.6
20260506104522 57 360 0.0 8.7 0.00 0.00 0.00 74 1016.3
20260506103008 57 360 0.9 5.2 0.00 0.00 0.00 75 1016.1
20260506101505 57 360 0.0 11.3 0.00 0.00 0.00 75 1015.5
20260506100011 57 360 0.0 4.3 0.00 0.00 0.00 75 1015.3
20260506094502 58 360 0.0 4.3 0.00 0.00 0.00 75 1014.9
20260506093059 58 132 0.0 3.5 0.00 0.00 0.00 75 1015.2
20260506091558 58 360 0.0 1.7 0.00 0.00 0.00 75 1014.8
20260506090056 58 360 0.0 3.5 0.00 0.00 0.00 75 1014.9
20260506084556 59 360 0.0 1.7 0.00 0.00 0.00 75 1014.8
20260506083056 59 360 0.0 4.3 0.00 0.00 0.00 75 1014.6
20260506081604 59 360 0.0 3.5 0.00 0.00 0.00 75 1014.6
20260506073046 60 119 0.0 1.7 0.00 0.00 0.00 76 1014.3
20260506071545 60 360 0.0 3.5 0.00 0.00 0.00 75 1014.4
20260506061545 61 115 0.0 4.3 0.00 0.00 0.00 77 1014.3
20260506044543 64 360 0.9 5.2 0.00 0.00 0.00 75 1014.1
20260506043026 64 360 0.0 7.0 0.00 0.00 0.00 74 1014.1
20260506041523 65 360 0.9 8.7 0.00 0.00 0.00 74 1014.4
20260506040020 66 360 0.0 5.2 0.00 0.00 0.00 73 1013.9
20260506034516 67 360 0.0 5.2 0.00 0.00 0.00 73 1013.5
20260506033020 67 360 0.0 6.1 0.00 0.00 0.00 72 1013.3
20260506031523 68 360 0.0 4.3 0.00 0.00 0.00 71 1013.0
20260506030011 68 360 0.0 3.5 0.00 0.00 0.00 71 1012.7
20260506024509 69 360 0.0 4.3 0.00 0.00 0.00 70 1012.4
20260506023004 69 360 0.0 5.2 0.00 0.00 0.00 69 1012.1
20260506021503 70 360 0.0 5.2 0.00 0.00 0.00 69 1011.8
20260506020100 71 360 0.0 8.7 0.00 0.00 0.00 68 1011.5
20260506014558 72 360 0.0 5.2 0.00 0.00 0.00 68 1010.9
20260506013108 73 360 0.0 4.3 0.00 0.00 0.00 67 1010.4
20260506011559 74 360 0.0 3.5 0.00 0.00 0.00 66 1010.2
20260506010117 75 360 0.0 3.5 0.00 0.00 0.00 66 1010.2
20260506004552 76 360 0.0 5.2 0.00 0.00 0.00 65 1009.8
20260506003052 77 360 0.0 3.5 0.00 0.00 0.00 63 1009.3
20260506001600 77 360 0.0 3.5 0.00 0.00 0.00 62 1009.3
20260506000054 78 360 0.9 7.8 0.00 0.00 0.00 61 1009.4
20260505234550 79 360 0.0 12.2 0.00 0.00 0.00 60 1009.1
20260505233100 81 360 0.9 5.2 0.00 0.00 0.00 59 1008.8
20260505231549 82 360 0.0 7.0 0.00 0.00 0.00 59 1008.7
20260505230054 85 360 0.0 5.2 0.00 0.00 0.00 57 1008.2
20260505224548 87 360 0.9 3.5 0.00 0.00 0.00 50 1008.1
20260505223047 88 360 0.0 3.5 0.00 0.00 0.00 48 1007.9
20260505221546 88 360 0.0 1.7 0.00 0.00 0.00 47 1007.7
20260505220045 93 360 0.9 4.3 0.00 0.00 0.00 44 1007.3
20260505214544 93 355 0.0 1.7 0.00 0.00 0.00 44 1007.6
20260505213041 93 360 0.0 0.9 0.00 0.00 0.00 44 1007.5
20260505211537 92 255 0.0 4.3 0.00 0.00 0.00 43 1007.7
20260505210035 92 360 0.0 3.5 0.00 0.00 0.00 48 1008.0
20260505204534 91 360 0.9 3.5 0.00 0.00 0.00 49 1008.2
20260505203037 90 360 0.0 5.2 0.00 0.00 0.00 50 1008.2
20260505201540 91 360 0.0 4.3 0.00 0.00 0.00 50 1008.5
20260505200032 89 360 0.9 7.0 0.00 0.00 0.00 52 1008.5
20260505194529 90 360 0.0 5.2 0.00 0.00 0.00 53 1008.6
20260505193026 91 360 0.0 4.3 0.00 0.00 0.00 55 1008.7
20260505191523 87 360 0.0 7.0 0.00 0.00 0.00 57 1008.6
20260505190033 87 360 0.0 7.8 0.00 0.00 0.00 60 1008.7
20260505184519 87 228 0.9 6.1 0.00 0.00 0.00 61 1008.8
20260505183016 84 360 0.9 7.0 0.00 0.00 0.00 65 1009.0
20260505181513 83 173 0.9 7.0 0.00 0.00 0.00 66 1009.1